"Pseudo-MPEC" for P22hMgo

Created 2025 Dec 4 11:35:10 UT using Find_Orb

Click here for an explanation of pseudo-MPECs

 
 Astrometry: 
     P22hMgo* C2025 11 25.54188507 47 13.141+49 08 35.14   ~BRGK 21.47wXNEOCPF52
     P22hMgo  C2025 11 25.55558207 47 12.363+49 09 37.13   ~BRGK 21.50wXNEOCPF52
     P22hMgo  C2025 11 25.58282407 47 10.814+49 11 39.62   ~BRGK 21.71wXNEOCPF52
     P22hMgo 1C2025 11 26.30150507 46 44.310+50 04 45.05   ~BS4K 21.46GVNEOCPG96
     P22hMgo 1C2025 11 26.31737307 46 43.540+50 05 56.15   ~BS4K 20.81GVNEOCPG96
     P22hMgo KC2025 12 02.48536407 39 18.022+56 56 47.69   ~C2CK 21.45GVNEOCPI52
     P22hMgo KC2025 12 02.49000407 39 17.431+56 57 03.10   ~C2CK 21.95GVNEOCPI52
     P22hMgo KC2025 12 02.49465007 39 16.931+56 57 20.48   ~C2CK 20.73GVNEOCPI52
     P22hMgo KC2025 12 02.49930407 39 16.398+56 57 35.68   ~C2CK 21.52GVNEOCPI52
     P22hMgo DC2025 12 04.33393 07 35 55.13 +58 42 51.7    ~C495 21.4 GVNEOCP695
     P22hMgo DC2025 12 04.34466 07 35 53.65 +58 43 28.0    ~C495 21.6 GVNEOCP695
     P22hMgo DC2025 12 04.35538 07 35 52.16 +58 44 04.6    ~C495 21.6 GVNEOCP695

Station data:
(695) Kitt Peak  (N31.958395 W111.594670)  US/Arizona. Measurer S. Deen.
   2.3-m f/9 reflector + CCD.
(F52) Pan-STARRS 2, Haleakala  (N20.707382 W156.255910)  US/Hawaii.
   Observers J. Herman, T. Lowe, P. Minguez, A. Schultz, I. Smith. Measurers
   K. Chambers, T. de Boer, J. Fairlamb, H. Gao, M. Huber, C.-C. Lin, E.
   Magnier, Y. Ramanjooloo, R. Wainscoat, R. Weryk. 1.8-m Ritchey-Chrétien +
   CCD.
(G96) Mt. Lemmon Survey  (N32.442729 W110.788720)  US/Arizona.  Observer E.
   J. Christensen. Measurers T. Beuden, V. F. Carvajal, D. Fay, J. B.
   Fazekas, D. C. Fuls, A. R. Gibbs, A. D. Grauer, H. Gröller, J. K. Hogan,
   R. A. Kowalski, S. M. Larson, G. J. Leonard, D. Rankin, R. L. Seaman, F.
   C. Shelly, K. W. Wierzchoś. 1.5-m reflector + 10K CCD.
(I52) Steward Observatory, Mt. Lemmon Station  (N32.442570 W110.788920)
   US/Arizona. Measurers T. Beuden, V. F. Carvajal, D. Fay, J. B. Fazekas, D.
   C. Fuls, A. R. Gibbs, A. D. Grauer, H. Gröller, J. K. Hogan, R. A.
   Kowalski, S. M. Larson, G. J. Leonard, D. Rankin, R. L. Seaman, F. C.
   Shelly, K. W. Wierzchoś. 1.0-m prime focus + CCD.

Orbital elements:  P22hMgo
   Perihelion 2025 Sep 27.231466 +/- 0.0337 TT =  5:33:18.6 (JD 2460945.731466)
Epoch 2025 Dec  4.0 TT = JDT 2461013.5   Earth MOID: 0.0956      AutoNEOCP
M  35.576131007 +/- 0.15            (J2000 ecliptic)
n   0.524965330 +/- 0.00202         Peri.  317.531441 +/- 0.025
a   1.521886627 +/- 0.00389         Node    55.697150 +/- 0.036
e   0.32621659 +/- 0.00159          Incl.   20.939543 +/- 0.07
P   1.877/685.747d         H 22.46  G  0.15   U  8.6
q 1.025421960 +/- 0.000212    Q 2.018351293 +/- 0.00758
From 12 observations 2025 Nov. 25-Dec. 4; mean residual 0".32
Residuals in arcseconds: 
251125 F52  .01+  .16+    251126 G96  .21+  .28-    251202 I52  .48+  .54-    
251125 F52  .01-  .09+    251202 I52  .05+  .52+    251204 695  .18-  .19-    
251125 F52  .08+  .25-    251202 I52  .21-  .42-    251204 695  .11-  .18-    
251126 G96  .76-  .21+    251202 I52  .27+  .61+    251204 695  .07-  .26+    

Ephemerides (geocentric):
Date (UTC) HH   RA             Dec           delta  r     elong  mag " sig PA
---- --------  ------------   ------------  ------ ------ -----  --- --------
2025 12 04 12  07 35 33.175   +58 51 50.12  .29492 1.2041 132.3 21.7 .287  68
2025 12 04 13  07 35 28.053   +58 54 07.10  .29510 1.2043 132.3 21.7 .299  68
2025 12 04 14  07 35 22.913   +58 56 23.83  .29528 1.2044 132.4 21.7 .312  69
2025 12 04 15  07 35 17.755   +58 58 40.33  .29547 1.2046 132.4 21.7 .324  69
2025 12 04 16  07 35 12.578   +59 00 56.57  .29565 1.2048 132.4 21.7 .337  69
2025 12 04 17  07 35 07.382   +59 03 12.57  .29583 1.2050 132.4 21.7 .350  69
2025 12 04 18  07 35 02.168   +59 05 28.33  .29601 1.2052 132.4 21.7 .363  69
2025 12 04 19  07 34 56.936   +59 07 43.84  .29620 1.2054 132.4 21.7 .376  69
2025 12 04 20  07 34 51.685   +59 09 59.11  .29638 1.2056 132.4 21.7 .389  69
2025 12 04 21  07 34 46.416   +59 12 14.13  .29656 1.2057 132.5 21.7 .402  70
2025 12 04 22  07 34 41.129   +59 14 28.91  .29675 1.2059 132.5 21.7 .416  70
2025 12 04 23  07 34 35.823   +59 16 43.45  .29693 1.2061 132.5 21.7 .429  70
2025 12 05 00  07 34 30.498   +59 18 57.73  .29711 1.2063 132.5 21.7 .443  70
2025 12 05 01  07 34 25.155   +59 21 11.78  .29730 1.2065 132.5 21.7 .457  70
2025 12 05 02  07 34 19.793   +59 23 25.58  .29748 1.2067 132.5 21.7 .470  70
2025 12 05 03  07 34 14.413   +59 25 39.13  .29767 1.2068 132.5 21.7 .484  70
2025 12 05 04  07 34 09.014   +59 27 52.44  .29785 1.2070 132.6 21.7 .498  70
2025 12 05 05  07 34 03.597   +59 30 05.50  .29804 1.2072 132.6 21.7 .512  70
2025 12 05 06  07 33 58.162   +59 32 18.32  .29822 1.2074 132.6 21.7 .527  70
2025 12 05 07  07 33 52.707   +59 34 30.89  .29841 1.2076 132.6 21.7 .541  70
2025 12 05 08  07 33 47.235   +59 36 43.22  .29859 1.2078 132.6 21.7 .555  70
2025 12 05 09  07 33 41.743   +59 38 55.31  .29878 1.2080 132.6 21.7 .570  70
2025 12 05 10  07 33 36.233   +59 41 07.14  .29897 1.2081 132.6 21.7 .585  70
2025 12 05 11  07 33 30.705   +59 43 18.74  .29915 1.2083 132.6 21.7 .599  70
2025 12 05 12  07 33 25.157   +59 45 30.09  .29934 1.2085 132.7 21.7 .614  70
2025 12 05 13  07 33 19.592   +59 47 41.19  .29952 1.2087 132.7 21.7 .629  70
2025 12 05 14  07 33 14.007   +59 49 52.05  .29971 1.2089 132.7 21.7 .644  70
2025 12 05 15  07 33 08.404   +59 52 02.66  .29990 1.2091 132.7 21.7 .659  70
2025 12 05 16  07 33 02.783   +59 54 13.03  .30009 1.2092 132.7 21.7 .674  70
2025 12 05 17  07 32 57.143   +59 56 23.15  .30027 1.2094 132.7 21.7 .690  70
2025 12 05 18  07 32 51.484   +59 58 33.03  .30046 1.2096 132.7 21.7 .705  70
2025 12 05 19  07 32 45.806   +60 00 42.66  .30065 1.2098 132.8 21.8 .721  70
2025 12 05 20  07 32 40.110   +60 02 52.05  .30084 1.2100 132.8 21.8 .736  70
2025 12 05 21  07 32 34.396   +60 05 01.19  .30103 1.2102 132.8 21.8 .752  70
2025 12 05 22  07 32 28.662   +60 07 10.09  .30121 1.2104 132.8 21.8 .768  70
2025 12 05 23  07 32 22.910   +60 09 18.74  .30140 1.2105 132.8 21.8 .784  70
2025 12 06 00  07 32 17.139   +60 11 27.14  .30159 1.2107 132.8 21.8 .800  70
2025 12 06 01  07 32 11.350   +60 13 35.30  .30178 1.2109 132.8 21.8 .816  70
2025 12 06 02  07 32 05.542   +60 15 43.22  .30197 1.2111 132.8 21.8 .832  70
2025 12 06 03  07 31 59.715   +60 17 50.89  .30216 1.2113 132.9 21.8 .849  70
2025 12 06 04  07 31 53.870   +60 19 58.32  .30235 1.2115 132.9 21.8 .865  70
2025 12 06 05  07 31 48.005   +60 22 05.50  .30254 1.2117 132.9 21.8 .882  70
2025 12 06 06  07 31 42.123   +60 24 12.43  .30273 1.2118 132.9 21.8 .899  70
2025 12 06 07  07 31 36.221   +60 26 19.12  .30292 1.2120 132.9 21.8 .915  70
2025 12 06 08  07 31 30.301   +60 28 25.56  .30311 1.2122 132.9 21.8 .932  70
2025 12 06 09  07 31 24.362   +60 30 31.76  .30330 1.2124 132.9 21.8 .949  70
2025 12 06 10  07 31 18.404   +60 32 37.72  .30349 1.2126 132.9 21.8 .966  70
2025 12 06 11  07 31 12.428   +60 34 43.42  .30368 1.2128 133.0 21.8 .983  70